Location: Allen Fire Department Station 4
(33.1073°N, 96.6988°W)
Time: 07:48:15
(UTC+00:00)

Cosmos 1763 Rocket - Pass Details

Date: 07 July 2022
Orbit: 732 x 780 km, 74.0° (Epoch: 09 August)

Event Time Altitude Azimuth Distance (km) Brightness Sun altitude
Exits shadow 06:01:37 20° 51° (NE) 1,714 5.5 -33.9°
Drops below altitude 10° 06:03:30 10° 37° (NE) 2,314 6.4 -33.9°
Sets 06:06:05 0° 28° (NNE) 3,251 7.5 -34.0°
